Vertical_Velocity
3 -0 0 -3 -3 -5 1 1 -2 -1 5 13 1 2 3 2 1 2 -14 -7 -6 -2 -3 -0 1 1 6 -1 1 3 -3 -0 -2 -0 -5 2 -1 -1 5 4 2 2 -4 -5 -2
-12 1 -2 -8 2 1 -6 -7 -1 -1 1 5 9 0 1 3 0 -4 -2 -0 1 6 2 -2 1 4 3 -1 1 -1 -1 -4 -3 -1 -1 -1 1 -0 -2 1 2 -0 1 2 -3
7 1 -1 6 -8 -3 1 -2 -5 -0 -3 -1 23 1 2 4 4 -26 2 -3 -0 2 -4 3 6 5 1 3 -1 1 -3 -2 -3 -1 2 0 -3 -1 1 -2 1 4 9 4 0
7 4 1 6 2 -4 -4 -2 0 -7 1 -3 1 6 -0 3 -4 0 1 0 -1 4 2 1 5 -1 0 0 -1 1 0 -2 -1 -5 3 -0 -2 -0 0 -8 -3 4 -4 6 3
-4 9 3 4 -1 -2 -3 -6 -4 -2 -2 -1 -3 26 4 2 -17 3 -0 6 6 -1 -3 0 2 -1 -1 -1 4 1 -1 2 -3 -1 1 3 -2 -5 -3 -7 0 5 -0 -2 -1
5 5 -7 3 -1 3 1 -7 -1 -12 -1 -1 -1 40 0 5 1 4 1 8 -1 1 2 1 -5 -5 -1 -0 -2 1 -0 -2 0 -3 -0 3 -3 12 -4 -2 -4 3 1 7 -0
-4 -2 -1 2 1 -6 -0 -2 1 -8 -2 -2 4 47 -6 -37 9 3 1 7 1 -3 -2 -3 -0 5 -1 1 -0 -0 -0 -1 -1 -1 -2 3 -2 -0 -15 0 -3 -5 -4 -1 1
-0 1 1 -3 1 -1 -3 -2 -4 -4 -4 2 -2 35 -8 -7 6 10 4 1 1 4 6 4 1 1 0 1 0 -1 -4 -1 -4 0 -8 3 -14 -2 -0 8 -6 -3 -5 -3 -17
-0 -1 -1 -3 -0 0 -3 -0 -2 -0 -4 5 4 -4 -7 -3 -3 -0 4 1 1 5 11 6 4 1 2 -2 -2 -2 -1 0 -7 -1 -0 0 -2 -10 1 5 -3 -5 -3 -2 -6
-1 -1 2 -1 2 4 1 -2 2 1 3 2 16 -4 1 -9 -4 -5 5 5 2 9 -2 2 -2 -1 1 0 -4 -2 0 -1 -1 -4 -0 -0 -4 -4 -1 3 -3 -3 -4 -4 -2
1 -1 -2 -0 3 2 -3 -9 -1 0 5 -1 -8 -2 1 4 7 -1 6 6 8 4 -1 1 -2 -2 -4 -1 -0 -2 -0 0 -2 -3 2 -1 -0 -3 -4 2 -1 -1 -5 -5 -7
-4 2 -2 -2 1 -0 4 -0 4 2 -4 4 -9 3 -1 -4 4 3 10 -3 1 -0 0 0 -1 -1 -0 0 -0 0 1 -3 -4 -1 4 -1 -7 -4 -0 -6 -4 -4 -4 -6 -2
-9 -0 1 1 -1 2 -0 1 -1 -8 1 -4 9 3 -6 5 -2 -3 4 2 -3 -0 0 -4 -5 1 -0 1 2 1 -1 -1 0 -2 -1 -0 -5 -1 -5 1 1 -0 -3 3 -5
1 -2 -0 6 -3 4 0 0 -2 1 -3 2 -0 -6 5 1 -2 1 5 -12 2 -3 -1 -2 -1 -2 1 -0 -3 -0 -0 -1 -0 -2 -3 -3 -9 -3 -3 -4 -0 -2 1 -4 -1
1 7 4 12 17 0 -5 2 -14 -1 -3 -2 7 8 5 -0 -13 5 8 -1 -2 -0 -3 -9 1 1 -0 -2 -2 -2 -1 -0 -0 -1 -1 -3 2 -18 1 -3 -3 -2 -0 0 -0
-4 -8 4 -4 -8 -9 -6 -5 2 -12 -7 4 2 3 -1 4 0 5 -2 -1 5 -2 -2 0 1 -2 -3 1 -1 -1 -3 -3 -1 -1 -3 -4 -1 -8 -2 -3 -1 -0 -2 -0 -2
14 -4 -3 5 2 0 -1 3 -10 -4 -3 7 1 1 -2 1 3 -0 -0 0 -3 -3 1 -1 -0 0 -3 -4 -1 -3 -4 -4 -8 -5 -7 -0 1 -12 -3 -3 1 -0 -4 -2 2
5 0 8 0 1 -1 -11 -2 -4 -3 -1 3 -1 1 -4 -2 5 3 2 0 0 -2 -1 -3 -5 -1 -1 -5 -6 -1 -6 -6 -2 -1 -3 -1 -3 -20 -3 -1 1 2 0 0 -2
6 0 -8 1 4 -3 6 -3 1 1 2 -3 4 -4 3 -0 -8 -2 -0 -1 -1 -2 -7 -2 -2 1 -1 -0 -11 -5 -3 -5 -3 -1 -4 -4 -9 -8 -1 0 -0 -1 -0 -1 -2
-7 -6 -5 -3 -2 2 -3 0 0 -0 -2 -2 -3 -2 -1 1 -3 -2 -0 -4 -1 -2 -1 -1 -4 -0 2 -3 1 -7 -5 -11 -5 -4 -2 -4 -1 -9 -3 0 -1 -2 -1 -1 -1
-6 -9 7 -5 -1 -3 1 1 -0 1 -1 -0 -1 -1 -0 -1 -2 0 -5 -4 1 -0 -1 -1 -9 -3 -4 -1 -4 1 -0 -2 -7 -3 -3 -0 -9 -5 -2 -1 -0 -1 -1 -1 -6
-3 -5 -9 -4 -3 0 0 2 -0 -1 -0 -2 -2 -2 -2 -0 -0 0 -4 -0 -1 -3 -1 -2 -3 -1 -7 -2 -2 -2 -3 -3 -5 -5 -1 -3 -18 -0 -0 -1 1 -1 -2 -9 -8
-3 -2 1 0 -1 -1 -3 -0 -0 0 -1 -1 0 -3 -1 -2 -6 -0 0 -1 -0 -1 -4 -3 -0 -3 -4 -3 1 0 -0 -1 -1 -2 -3 -1 -14 -0 -0 -3 -7 1 -3 -4 -8
-1 -7 -4 1 -0 1 0 -0 -2 1 -1 0 0 -4 -1 0 0 -1 1 1 3 -1 1 -6 -0 -6 -8 -9 -4 1 1 0 -2 1 -3 -9 -10 -14 -8 -1 -5 -6 -3 -2 -2
-3 2 3 -3 -4 -0 -1 2 -0 -3 -1 -0 -1 -2 -2 -1 0 0 0 1 -1 5 1 -6 -2 -1 -1 -1 1 -2 -1 -0 1 -8 3 -17 2 -9 -3 2 0 5 -1 -0 -1
-4 -0 -5 -1 0 -0 -1 -1 1 -1 -1 -1 -5 1 -1 -2 -3 -2 -3 -1 -4 0 -0 -0 -0 -0 -2 -1 1 0 -0 0 -0 -2 1 3 -12 0 -3 -3 -2 -0 -3 -3 -4
2 3 -2 -3 -1 -1 -1 -1 1 -0 0 0 -0 -3 -3 2 1 3 1 -4 -5 -6 -0 -3 -2 -1 -4 0 -1 -1 -6 -1 -1 -0 -4 -0 -11 -0 -5 -1 -0 -3 1 1 1
Height
1497 1494 1492 1490 1487 1485 1483 1482 1481 1480 1480 1481 1482 1482 1481 1481 1481 1482 1479 1481 1485 1488 1490 1493 1496 1499 1503 1504 1507 1508 1515 1517 1509 1510 1505 1499 1502 1501 1499 1496 1495 1495 1496 1497 1501
1495 1492 1489 1487 1485 1482 1480 1477 1476 1476 1475 1476 1478 1479 1478 1478 1478 1476 1474 1478 1482 1486 1488 1490 1494 1497 1501 1501 1503 1504 1512 1506 1499 1499 1501 1500 1501 1501 1499 1496 1494 1495 1495 1496 1500
1491 1489 1486 1483 1480 1479 1476 1475 1473 1471 1472 1472 1474 1475 1474 1475 1477 1467 1468 1472 1477 1482 1485 1490 1492 1496 1497 1499 1500 1499 1504 1499 1496 1497 1500 1500 1499 1502 1499 1497 1495 1496 1495 1496 1498
1486 1483 1480 1478 1476 1474 1472 1470 1468 1467 1467 1467 1466 1469 1472 1473 1474 1463 1464 1468 1474 1478 1483 1486 1490 1493 1494 1497 1496 1499 1496 1496 1496 1497 1498 1499 1499 1498 1499 1496 1495 1495 1497 1498 1498
1481 1477 1475 1473 1472 1470 1468 1467 1464 1462 1462 1463 1463 1463 1467 1470 1465 1463 1463 1467 1472 1476 1479 1482 1487 1490 1493 1493 1496 1496 1495 1494 1495 1496 1496 1496 1496 1496 1493 1495 1493 1493 1495 1495 1495
1476 1473 1472 1470 1467 1465 1463 1462 1459 1457 1456 1458 1460 1459 1463 1467 1463 1463 1464 1466 1470 1474 1476 1480 1485 1488 1489 1490 1494 1492 1492 1492 1493 1494 1494 1494 1492 1493 1489 1491 1490 1489 1489 1491 1492
1471 1468 1466 1464 1462 1460 1457 1456 1454 1453 1451 1453 1455 1455 1458 1459 1460 1462 1464 1466 1469 1472 1474 1479 1483 1486 1488 1489 1490 1491 1492 1492 1491 1491 1491 1492 1486 1485 1487 1486 1484 1485 1485 1483 1485
1467 1464 1461 1459 1456 1455 1453 1450 1449 1448 1447 1450 1452 1452 1455 1456 1459 1460 1463 1467 1469 1471 1475 1479 1482 1485 1486 1487 1489 1491 1493 1498 1489 1487 1487 1491 1484 1480 1481 1481 1480 1479 1480 1479 1476
1465 1461 1458 1456 1453 1450 1448 1445 1444 1444 1444 1447 1450 1450 1452 1453 1454 1458 1461 1465 1468 1469 1474 1478 1482 1484 1486 1488 1494 1496 1502 1500 1494 1483 1485 1486 1484 1475 1475 1476 1476 1476 1475 1474 1472
1462 1459 1456 1453 1450 1447 1444 1442 1440 1439 1441 1445 1446 1450 1447 1447 1451 1456 1460 1464 1466 1469 1474 1477 1481 1484 1485 1486 1498 1498 1501 1497 1497 1485 1483 1483 1481 1474 1472 1472 1471 1470 1470 1468 1466
1460 1456 1453 1450 1447 1444 1441 1439 1440 1440 1438 1438 1439 1440 1440 1445 1451 1456 1459 1463 1466 1468 1473 1476 1479 1481 1484 1485 1486 1488 1494 1497 1492 1485 1486 1482 1480 1475 1468 1467 1465 1462 1461 1459 1459
1457 1453 1450 1447 1445 1442 1440 1440 1440 1441 1439 1438 1440 1440 1438 1444 1450 1455 1459 1462 1464 1468 1471 1480 1481 1480 1483 1484 1487 1490 1496 1498 1491 1486 1486 1483 1476 1468 1463 1458 1456 1455 1453 1451 1452
1453 1450 1447 1444 1443 1441 1439 1439 1438 1439 1441 1440 1438 1442 1444 1447 1449 1453 1458 1459 1464 1469 1472 1479 1477 1479 1482 1485 1489 1493 1494 1494 1494 1489 1487 1484 1468 1462 1453 1448 1445 1443 1443 1446 1445
1449 1446 1444 1442 1442 1440 1439 1438 1437 1439 1445 1438 1439 1441 1445 1446 1452 1455 1458 1462 1466 1470 1473 1476 1474 1475 1483 1485 1486 1492 1490 1490 1492 1495 1502 1491 1493 1471 1455 1449 1442 1439 1440 1441 1440
1444 1441 1439 1438 1434 1437 1439 1438 1437 1439 1438 1435 1437 1440 1443 1446 1448 1456 1458 1462 1467 1470 1474 1478 1475 1478 1482 1483 1483 1489 1489 1491 1493 1501 1504 1498 1501 1473 1459 1450 1442 1437 1437 1438 1439
1438 1433 1431 1430 1428 1432 1436 1437 1438 1442 1439 1431 1432 1437 1444 1448 1451 1456 1461 1464 1467 1468 1474 1475 1475 1477 1479 1481 1481 1486 1492 1498 1501 1508 1526 1496 1492 1478 1458 1447 1440 1438 1438 1437 1438
1431 1426 1425 1426 1429 1431 1435 1438 1444 1444 1439 1430 1431 1437 1444 1450 1454 1458 1464 1466 1471 1478 1481 1478 1479 1479 1478 1485 1486 1489 1500 1524 1528 1538 1509 1489 1494 1471 1450 1444 1441 1441 1438 1436 1435
1431 1424 1425 1428 1431 1434 1437 1441 1439 1432 1425 1426 1433 1439 1446 1451 1457 1460 1464 1468 1469 1472 1479 1489 1496 1482 1480 1482 1487 1493 1498 1515 1500 1516 1504 1486 1482 1458 1441 1441 1440 1438 1436 1434 1434
1434 1430 1430 1433 1437 1439 1441 1437 1438 1434 1426 1430 1439 1446 1450 1454 1456 1460 1463 1467 1469 1470 1480 1492 1486 1478 1478 1479 1483 1495 1507 1498 1510 1510 1526 1492 1474 1452 1441 1442 1441 1438 1435 1434 1433
1438 1436 1438 1440 1442 1442 1442 1437 1438 1437 1430 1434 1443 1448 1453 1456 1458 1460 1466 1465 1467 1468 1470 1473 1487 1477 1480 1482 1485 1490 1492 1510 1525 1535 1511 1489 1484 1460 1446 1441 1439 1438 1437 1436 1435
1443 1442 1447 1446 1445 1446 1442 1441 1438 1436 1437 1435 1442 1446 1451 1452 1459 1463 1466 1463 1464 1465 1468 1469 1479 1485 1482 1486 1488 1492 1499 1498 1504 1512 1517 1500 1469 1447 1441 1439 1441 1439 1436 1434 1432
1446 1449 1447 1448 1447 1444 1443 1444 1442 1440 1436 1436 1436 1441 1448 1451 1458 1460 1464 1460 1459 1462 1469 1467 1478 1500 1486 1481 1481 1484 1488 1493 1515 1510 1511 1508 1468 1437 1437 1438 1437 1434 1432 1430 1427
1450 1451 1448 1449 1449 1448 1445 1441 1441 1438 1436 1432 1434 1437 1443 1451 1458 1457 1457 1456 1457 1462 1465 1466 1479 1500 1486 1483 1482 1484 1484 1485 1489 1496 1510 1495 1460 1436 1435 1432 1432 1429 1427 1423 1421
1451 1454 1451 1448 1449 1449 1446 1445 1441 1437 1435 1433 1435 1437 1442 1447 1448 1456 1457 1457 1459 1460 1463 1466 1478 1487 1490 1488 1480 1488 1479 1481 1485 1491 1481 1470 1449 1434 1434 1432 1428 1424 1421 1416 1413
1456 1457 1458 1456 1450 1449 1448 1446 1443 1441 1437 1436 1440 1441 1442 1447 1451 1457 1458 1460 1461 1461 1464 1468 1484 1485 1479 1477 1478 1477 1475 1476 1481 1472 1476 1445 1454 1439 1434 1430 1425 1422 1417 1413 1410
1461 1461 1458 1454 1452 1451 1449 1447 1446 1443 1442 1444 1445 1444 1443 1448 1449 1455 1456 1460 1461 1464 1466 1468 1478 1481 1479 1474 1473 1475 1468 1468 1466 1464 1460 1453 1445 1437 1431 1428 1424 1421 1418 1413 1408
1464 1463 1463 1458 1454 1453 1451 1447 1447 1445 1446 1446 1446 1446 1449 1451 1450 1450 1451 1453 1456 1461 1467 1471 1479 1483 1492 1471 1471 1469 1456 1455 1455 1453 1451 1449 1436 1429 1428 1426 1425 1422 1418 1413 1407